Regional Weather Roundup
Issued by NWS

Home | Current Version | Previous Version | Graphics & Text | Print | Product List | Glossary On
Versions: 1 2 3 4 5 6 7 8 9 10 11 12 13 14 15 16 17 18 19 20 21 22 23 24 25 26 27 28 29 30 31 32 33 34 35 36 37 38 39 40 41 42 43 44 45 46 47 48 49 50
000
ASUS45 KBOI 210610
RWRID

IDAHO REGIONAL WEATHER ROUNDUP
NATIONAL WEATHER SERVICE BOISE ID
1100 PM MST MON NOV 20 2017

NOTE: "FAIR" INDICATES FEW OR NO CLOUDS BELOW 12000 FEET
WITH NO SIGNIFICANT WEATHER AND/OR OBSTRUCTIONS TO VISIBILITY

IDZ012-014-210700-
SOUTHWEST IDAHO


CITY           SKY/WX    TMP DP  RH WIND       PRES   REMARKS
BOISE          CLOUDY    48  42  80 SE10      30.07R
CALDWELL       CLOUDY    49  44  83 E7        30.08R
MOUNTAIN HOME  DRIZZLE   43  43 100 E7        30.09R
$$

IDZ016-017-210700-
SOUTHCENTRAL IDAHO


CITY           SKY/WX    TMP DP  RH WIND       PRES   REMARKS
BURLEY         CLOUDY    46  41  82 SW8       30.08R
JEROME         LGT RAIN  43  40  89 N5        30.11R
TWIN FALLS     CLOUDY    46  43  89 SW6       30.10R
$$

IDZ019>023-210700-
SOUTHEAST IDAHO


CITY           SKY/WX    TMP DP  RH WIND       PRES   REMARKS
IDAHO FALLS    CLOUDY    42  37  82 SW14      30.05R
POCATELLO      CLOUDY    46  39  76 SW14      30.10R
REXBURG        CLOUDY    40  37  89 SW12      30.04R WCI  33
$$

IDZ006-010-011-018-031-032-210700-
CENTRAL IDAHO MOUNTAINS


CITY           SKY/WX    TMP DP  RH WIND       PRES   REMARKS
MCCALL         CLOUDY    38  36  92 E3        30.07R
HAILEY         MOCLDY    32  32 100 CALM      30.10S FOG
STANLEY          N/A     37  36  96 CALM      30.08R
SALMON         CLOUDY    34  33  96 CALM      30.04R
CHALLIS        CLOUDY    36  33  89 SW5       30.01R WCI  32
$$

IDZ002-004-006-007-026-210700-
NORTHERN IDAHO


CITY           SKY/WX    TMP DP  RH WIND       PRES   REMARKS
LEWISTON       PTCLDY    43  39  86 CALM      30.08R
LOWELL           N/A     39  38  96 CALM      30.14R
COEUR D`ALENE  CLOUDY    41  38  89 W6        30.05R
MULLAN PASS    CLOUDY    29  26  89 W9        29.99R WCI  20
$$



USA.gov is the U.S. government's official web portal to all federal, state and local government web resources and services.